千帆星座-21 (QIANFAN-21)

导读

QIANFAN-21 是中国北斗卫星导航系统的重要组成部分,主要用于提供高精度定位、导航和授时服务。该卫星采用先进技术和稳定平台,具备更强的信号覆盖能力和抗干扰性能,提升了系统的整体可靠性与全球服务能力。QIANFAN-21 的成功发射进一步完善了北斗三号系统的星座布局,为交通运输、应急救援、农业、电力等领域提供更精准的时空信息服务,增强了中国在全球卫星导航领域的竞争力和自主保障能力。

Basic Information
目录编号:
61554
目录名称:
QIANFAN-21
国际标识:
2024-185C
轨道中心:
EARTH
卫星名称:
千帆星座-21
卫星全名:
千帆星座-21 (QIANFAN-21)
卫星状态:
在轨 (已飞行696 天)
发射日期:
2024-10-15 UTC
国别 :
中国 (CN)
星等 :
--
This satellite is enrolled in the Space Conjunction Data Service (SCDS) and the current flight risk assessment level is: No High Risk
Orbit Information
数据来源 国际轨道数据 AOE轨道数据
星历时间 2026-09-11T06:12:12+0800
10小时前
查看轨道信息
2026-09-10T07:00:00+0800
1天前
查看轨道信息
半长轴 7193.611km 7193.607km
偏心率 0.0010313 0.0009208
轨道倾角 88.976° 88.977°
近地点辐角 184.558° 188.917°
升交点赤经 45.103° 45.215°
平近点角 175.552° 261.845°
近地点 808.055km 808.846km
远地点 822.893km 822.094km
周期 101.200分钟 101.200分钟
每日圈数 14.229262 14.229275
Detailed Information
卫星平台:
21
覆盖范围:
全球
运营商:
上海垣信卫星科技有限公司
运营商所在国:
中国
使用方式:
暂无
Satellite Introduction
千帆星座,也被称为“G60星链”计划,是中国版“星链”的重要组成部分,旨在打造一个由1.4万多颗低轨宽频多媒体卫星构成的庞大星座。千帆星座计划由上海垣信卫星科技有限公司负责实施,于2023年启动建设。该项目是我国第二个低轨卫星大星座,旨在通过构建庞大的卫星网络,为全球用户提供高质量的通信和宽带互联网服务。
2D Orbit Map
3D Orbit Map
Orbit Altitude Analysis Chart
Orbit Inclination Analysis Chart
Orbit Comprehensive Analysis Chart
View Comprehensive Chart
Conjunction Data List
Event ID Objects TCA Miss Dist (km) Collision Risk Probability Collision Risk Index (CRI) Action
CDM_260911-215105-432006-155425
2026-09-11T
21:51:36+0000
0.907 km
远距离
3.802691E-5 中风险 0.67
CDM_260913-202603-586606-155421
STERKH 2 (35866)
2026-09-13T
20:26:52+0000
1.227 km
极远距离
1.333989E-5 中风险 0.58
CDM_260912-145606-155406-487623
2026-09-12T
14:56:54+0000
1.454 km
极远距离
7.433469E-6 低风险 0.52
CDM_260911-194606-155408-949423
2026-09-11T
19:46:00+0000
1.899 km
极远距离
2.366067E-6 低风险 0.42
CDM_260913-112705-431806-155422
2026-09-13T
11:27:21+0000
2.350 km
极远距离
1.939654E-6 低风险 0.41
CDM_260913-093906-136706-155421
2026-09-13T
09:39:51+0000
2.608 km
极远距离
1.62471E-6 低风险 0.39
Miss Distance Evolution Trend with All Objects
Collision Probability Evolution Trend with All Objects